Location: *
(50.3194°N, 7.1067°E)
Time: 05:23:11
(UTC+00:00)

Nadezhda 3 Rocket - Pass Details

Date: 22 September 2019
Orbit: 958 x 999 km, 82.9° (Epoch: 22 October)

Event Time Altitude Azimuth Distance (km) Brightness Sun altitude
Exits shadow 20:30:16 51° 196° (SSW) 1,195 4.2 -27.4°
Maximum altitude 20:31:58 84° 280° (W) 978 3.9 -27.6°
Drops below altitude 10° 20:38:14 10° 9° (N) 2,731 6.7 -28.4°
Sets 20:40:46 0° 10° (N) 3,689 7.4 -28.7°
